Find Local Weather

World > North America > United States > Washington

Blaine, Washington Regional Weather

Lat: 48.99N, Lon: 122.76W
Wx Zone: WAZ503
Feedback
Expires:201807210600;;805743
ASUS46 KSEW 210510
RWRWA 

WASHINGTON REGIONAL WEATHER ROUNDUP
NATIONAL WEATHER SERVICE SEATTLE WA
1000 PM PDT FRI JUL 20 2018

NOTE:"FAIR" INDICATES FEW OR NO CLOUDS BELOW 12,000 FEET WITH NO 
SIGNIFICANT WEATHER AND/OR OBSTRUCTIONS TO VISIBILITY.


WAZ001-503-506-510-514-515-210600-
NORTH INTERIOR
  
CITY           SKY/WX    TMP DP  RH WIND       PRES   REMARKS
BELLINGHAM     PTCLDY    57  49  74 CALM      30.13R                  
FRIDAY HARBOR  CLEAR     56  48  74 SW7       30.14F                  
EASTSOUND      CLEAR     59  50  72 CALM      30.13S                  
PORT ANGELES   CLEAR     55  50  83 W7        30.17S                  
EDIZ HOOK      FAIR      56  51  81 W8        30.16S                  
PORT TOWNSEND  FAIR      59  50  72 NW9       30.15S                  
NAS WHIDBEY    PTCLDY    57  51  80 VRB3      30.19R                  
ARLINGTON      CLEAR     60  50  69 W12       30.14R                  
BURLINGTON     CLEAR     57  50  77 CALM      30.14R                  
$$
 

SKY/WX - Weather  TMP - Temperature  DP - Dewpoint  RH - Relative Humidity
WIND - Wind Direction/Speed PRES - Barometric Pressure